Location: Baia de Cri?
(46.1667°N, 22.7167°E)
Time: 08:17:22
(UTC+00:00)

Helios 1A Rocket - Pass Details

Date: 15 January 2026
Orbit: 426 x 436 km, 98.3° (Epoch: 10 February)

Event Time Altitude Azimuth Distance (km) Brightness Sun altitude
Rises 04:18:07 0° 165° (SSE) 2,437 6.5 -18.5°
Reaches altitude 10° 04:20:07 10° 165° (SSE) 1,571 5.5 -18.2°
Maximum altitude 04:23:30 90° 285° (WNW) 455 2.3 -17.6°
Enters shadow 04:25:36 22° 346° (NNW) 1,044 4.0 -17.2°
